Location: ??
(35.5301°N, 139.6997°E)
Time: 01:17:34
(UTC+00:00)

Daily predictions for brighter satellites

Satellite Brightness Start Highest point End
(mag) Time Altitude Azimuth Time Altitude Azimuth Time Altitude Azimuth
CZ-4 R/B 4.2 10:11:28 10° SW 10:14:25 19° W 10:17:25 10° NW
MOS 1 Rocket 3.5 10:10:59 10° NNE 10:15:12 43° E 10:19:15 10° S
STARLINK-1204 3.9 10:12:03 10° SSW 10:15:59 45° SE 10:19:56 10° ENE
Meteor 1-11 Rocket 3.7 10:10:33 10° N 10:16:12 75° E 10:21:42 10° SSE
STARLINK-1161 3.7 10:13:05 10° NW 10:17:14 73° NE 10:21:21 10° SE
Cosmos 389 Rocket 3.8 10:15:53 10° SE 10:18:29 20° E 10:21:06 10° NE
ATLAS CENTAUR R/B 4.2 10:15:35 10° WSW 10:19:40 23° NW 10:21:59 10° N
STARLINK-1238 3.8 10:16:55 10° SSW 10:20:55 50° SE 10:24:56 10° NE
Cosmos 405 Rocket 3.6 10:17:15 10° NNW 10:21:11 53° W 10:25:02 10° S
FREGAT/IRIS 2.2 10:19:00 10° SSE 10:21:39 71° ENE 10:24:18 10° N
STARLINK-1160 3.6 10:18:04 10° NW 10:22:13 81° NE 10:26:21 10° SE
SPOT 3 Rocket 4.3 10:17:49 10° SE 10:22:26 35° ENE 10:27:04 10° N
Genesis I 4.3 10:21:45 10° NW 10:25:22 41° WSW 10:28:57 10° S
STARLINK-1201 3.6 10:21:51 10° SSW 10:25:54 57° SE 10:29:57 10° NE
STARLINK-1170 3.6 10:23:02 10° NW 10:27:12 89° ENE 10:31:13 11° SE
Cosmos 1500 4.5 10:24:29 10° NNW 10:28:08 42° W 10:31:46 10° SSW
STARLINK-1206 3.6 10:26:46 10° SW 10:30:51 65° SE 10:34:57 10° NE
MONITOR-E 3.6 10:29:15 10° SSE 10:31:47 77° E 10:34:21 10° N
STARLINK-1150 3.6 10:28:02 10° NW 10:32:11 81° SW 10:36:01 12° SE
H-2A R/B 2.5 10:29:24 10° S 10:34:16 60° W 10:39:17 10° NNW
Cosmos 1844 3.7 10:29:50 10° SSW 10:35:27 86° ESE 10:41:11 10° NNE
STARLINK-1205 3.5 10:31:43 10° SW 10:35:49 72° SE 10:39:57 10° NE
Cosmos 1908 Rocket 4.5 10:33:04 10° NNE 10:37:04 32° ENE 10:40:32 13° SE
Okean 1 4.1 10:33:27 10° SSE 10:37:05 33° E 10:40:45 10° NNE
STARLINK-1151 3.7 10:33:01 10° NW 10:37:08 73° SW 10:40:48 13° SE
GPS 2-04 Rocket1 4.3 10:35:46 10° S 10:37:32 13° SSE 10:37:59 13° SE
CZ-2C R/B 3.9 10:34:11 10° S 10:39:20 55° W 10:44:47 10° NNW
STARLINK-1218 3.5 10:36:39 10° SW 10:40:46 81° SE 10:44:55 10° NE
STARLINK-1133 3.8 10:38:00 10° NW 10:42:06 65° SW 10:45:34 14° SSE
OAO 3 Copernicus 4.4 10:38:01 10° W 10:43:01 64° SSW 10:47:11 15° ESE
Resurs 1-3 4.0 10:40:03 11° SSE 10:44:01 47° ENE 10:48:14 10° N
STARLINK-1254 3.6 10:41:37 10° SW 10:45:45 90° SE 10:49:54 10° NE
USA 186 3.0 10:44:02 10° SSW 10:46:07 28° W 10:48:18 10° NW
STARLINK-1139 4.0 10:43:01 10° NW 10:47:05 58° SW 10:50:22 15° SSE
Cosmos 1371 Rocket 4.2 10:44:39 10° S 10:49:40 47° ESE 10:54:42 10° NNE
Cosmos 1666 3.3 10:46:34 10° NNW 10:50:22 57° W 10:54:07 10° S
STARLINK-1231 3.7 10:46:37 10° SW 10:50:45 82° NW 10:54:54 10° NE
STARLINK-1174 4.2 10:48:00 10° NW 10:52:02 51° SW 10:55:08 16° SSE
Cosmos 2242 Rocket 3.5 10:48:07 10° S 10:52:31 85° E 10:56:56 10° N
NOSS 2-3 (E) 3.4 10:51:14 10° SSW 10:55:21 74° ESE 10:59:57 10° NE
STARLINK-1232 3.8 10:51:37 10° SW 10:55:44 74° NW 10:59:52 10° NE
Cosmos 1536 3.7 10:52:34 10° NNW 10:56:31 50° W 11:00:27 10° S
STARLINK-1149 4.3 10:53:01 10° WNW 10:56:59 46° SW 10:59:55 17° SSE
Cosmos 2034 Rocket 4.0 10:51:11 10° N 10:57:20 69° E 11:03:09 11° SSE
STARLINK-1208 4.0 10:56:35 10° SW 11:00:42 66° NW 11:04:48 10° NE
Cosmos 2251 Rocket 3.9 10:56:10 10° NNW 11:01:20 62° WSW 11:06:27 10° S
Cosmos 1515 4.2 10:59:44 20° SSE 11:01:51 38° E 11:05:24 10° NNE
Cosmos 1607 4.0 10:56:03 10° NNW 11:02:30 89° ENE 11:07:32 18° SSE
STARLINK-1157 3.3 10:59:21 10° NW 11:02:39 56° NE 11:04:14 27° ESE
Ariane Rocket 4.4 10:58:12 10° SSW 11:02:48 35° W 11:07:27 10° NNW
DMSP B5D2-2 4.4 10:57:38 10° N 11:02:54 69° WNW 11:08:07 10° SSW
CZ-2C R/B 4.2 10:58:48 10° N 11:03:12 60° WNW 11:07:38 10° SSW
SJ-6B 4.1 11:02:07 10° SSW 11:05:37 37° W 11:09:07 10° NNW
STARLINK-1271 4.2 11:01:37 10° WSW 11:05:41 59° NW 11:09:47 10° NE
Cosmos 1816 Rocket 4.4 11:01:12 10° S 11:07:21 83° E 11:13:29 10° N
Aureole 1 Rocket 4.4 11:03:30 10° N 11:07:24 29° ENE 11:09:48 21° ESE
Spot 2 Rocket 4.5 11:06:48 20° ESE 11:09:13 30° ENE 11:13:35 10° N
STARLINK-1120 4.4 11:05:20 10° NNW 11:09:17 42° NE 11:11:29 22° E
STARLINK-1154 4.4 11:06:39 10° WSW 11:10:41 53° NW 11:14:45 10° NE
STARLINK-1131 4.2 11:10:16 10° NW 11:14:16 46° NE 11:16:16 25° E
Meteor 1-4 Rocket 2.8 11:14:16 34° SE 11:15:14 43° E 11:18:32 10° NNE
NOSS 2-3 (D) 3.7 11:11:11 10° SW 11:15:19 74° WNW 11:19:57 10° NNE
Cosmos 2082 Rocket 4.3 11:14:11 10° NNE 11:16:15 12° NE 11:18:20 10° ENE
Okean 3 4.4 11:16:16 27° ESE 11:17:11 30° E 11:20:58 10° NNE
SEDSat Delta rocket 4.1 11:11:10 10° W 11:17:52 61° S 11:21:57 23° ESE
Cosmos 2056 Rocket 3.3 11:13:08 10° S 11:18:14 77° ESE 11:23:21 10° NNE
Cosmos 44 Rocket 3.3 11:13:21 10° NNW 11:18:16 89° NE 11:21:03 27° SSE
STARLINK-1190 4.1 11:15:11 10° NW 11:19:14 51° NE 11:21:01 29° ESE
Hubble Space Telescope 1.6 11:19:29 10° WSW 11:23:08 30° S 11:23:32 30° SSE
Cosmos 1833 Rocket 4.2 11:19:53 10° N 11:24:12 22° ENE 11:26:26 17° E
STARLINK-1129 3.9 11:20:10 10° NW 11:24:15 56° NE 11:25:50 33° ESE
ERBS 2.1 11:23:13 10° SSW 11:26:28 62° SE 11:29:44 10° NE
Okean 1-7 3.4 11:23:09 10° SSW 11:27:24 64° W 11:31:39 10° N
STARLINK-1269 4.3 11:24:08 10° SSW 11:28:53 34° E 11:31:51 10° ENE
STARLINK-1134 3.8 11:25:09 10° NW 11:29:15 63° NE 11:30:38 38° ESE
Terra 3.8 11:28:26 13° ENE 11:29:20 14° ENE 11:31:39 10° NE
CZ-2C R/B 4.0 11:24:15 10° N 11:29:31 43° WNW 11:34:46 10° SW
USA 245 3.8 11:29:44 35° E 11:30:12 37° ENE 11:33:17 10° N
Cosmos 2221 Rocket 4.0 11:31:30 37° SE 11:32:33 44° E 11:36:52 10° NNE
Meteor 2-9 Rocket 4.1 11:27:18 10° N 11:32:39 61° E 11:34:56 33° SSE
STARLINK-1200 4.1 11:29:02 10° SSW 11:33:38 39° ESE 11:36:54 10° ENE
Lacrosse 5 4.3 11:31:22 10° N 11:33:31 13° NNE 11:35:41 10° NE
STARLINK-1135 3.7 11:30:05 10° NW 11:34:12 70° NE 11:35:23 44° ESE
NOSS 3-1 (A) 4.3 11:29:58 10° SW 11:35:07 47° NW 11:40:58 10° NNE
STARLINK-1192 3.8 11:33:56 10° SSW 11:38:21 46° ESE 11:41:55 10° ENE
Cosmos 1634 Rocket 4.1 11:32:35 10° N 11:38:53 64° E 11:41:54 32° SSE
STARLINK-1141 3.6 11:35:04 10° NW 11:39:13 78° NE 11:40:11 50° ESE
Resurs 01 Rocket 2.1 11:37:20 24° S 11:39:51 57° W 11:44:15 10° NNW
Cosmos 1544 2.9 11:38:59 10° N 11:42:38 81° E 11:43:03 66° SSE
STARLINK-1244 3.6 11:38:50 10° SSW 11:43:05 54° ESE 11:46:55 10° NE
STARLINK-1140 3.5 11:40:01 10° NW 11:44:10 86° NE 11:44:57 58° SE
SAR-Lupe-2 3.5 11:41:05 10° NNE 11:44:41 86° WNW 11:45:30 52° SSW
Cosmos 2278 Rocket 2.1 11:39:21 10° SSW 11:45:00 84° ESE 11:50:42 10° NNE
Cosmos 371 Rocket 3.5 11:47:17 44° ESE 11:47:39 45° ESE 11:52:17 10° NNE
Cosmos 1743 4.1 11:44:16 10° NNW 11:47:43 34° W 11:49:40 20° SW
STARLINK-1138 3.5 11:43:45 10° SSW 11:47:49 62° SE 11:51:55 10° NE
Cosmos 1452 Rocket 3.7 11:48:09 43° SE 11:49:09 49° ESE 11:54:14 10° NNE
STARLINK-1156 3.5 11:45:01 10° NW 11:49:09 85° SW 11:49:45 64° SE
Sich 1 Rocket 3.5 11:45:46 10° N 11:50:22 78° E 11:51:28 52° SSE
STARLINK-1203 3.5 11:47:46 10° SW 11:51:56 70° SE 11:56:07 10° NE
STARLINK-1143 3.4 11:48:42 10° SW 11:52:48 69° SE 11:56:55 10° NE
STARLINK-1148 3.5 11:49:58 10° NW 11:54:07 76° SW 11:54:31 68° S
